| time (UTC) | temp F | wind direction | speed knots | gust knots | rain 1hr in | rain 24hr in | rain mn in | humidity % | barometer mb |
| 20260504081506 | 52 | 360 | 6.1 | 12.2 | 0.00 | 0.00 | 0.00 | 45 | 1010.7 |
| 20260504044533 | 60 | 360 | 8.7 | 13.0 | 0.00 | 0.00 | 0.00 | 32 | 1004.3 |
| 20260504043033 | 60 | 360 | 4.3 | 8.7 | 0.00 | 0.00 | 0.00 | 31 | 1004.0 |
| 20260504041532 | 59 | 360 | 6.1 | 10.4 | 0.00 | 0.00 | 0.00 | 32 | 1003.6 |
| 20260504040034 | 57 | 360 | 0.0 | 3.5 | 0.00 | 0.00 | 0.00 | 35 | 1003.0 |
| 20260504034535 | 59 | 360 | 1.7 | 7.0 | 0.00 | 0.00 | 0.00 | 31 | 1002.8 |
| 20260504033046 | 62 | 360 | 1.7 | 4.3 | 0.00 | 0.00 | 0.00 | 28 | 1002.6 |
| 20260504031532 | 66 | 360 | 4.3 | 8.7 | 0.00 | 0.00 | 0.00 | 25 | 1002.5 |
| 20260504030031 | 60 | 360 | 5.2 | 8.7 | 0.00 | 0.00 | 0.00 | 30 | 1002.4 |
| 20260504024542 | 59 | 360 | 3.5 | 7.0 | 0.00 | 0.00 | 0.00 | 32 | 1002.2 |
| 20260504023030 | 61 | 360 | 2.6 | 4.3 | 0.00 | 0.00 | 0.00 | 33 | 1001.9 |
| 20260504021528 | 66 | 360 | 0.9 | 3.5 | 0.00 | 0.00 | 0.00 | 26 | 1001.9 |
| 20260504020029 | 70 | 275 | 2.6 | 3.5 | 0.00 | 0.00 | 0.00 | 22 | 1001.8 |
| 20260504014527 | 73 | 360 | 0.9 | 4.3 | 0.00 | 0.00 | 0.00 | 22 | 1002.0 |
| 20260504013026 | 74 | 360 | 4.3 | 9.6 | 0.00 | 0.00 | 0.00 | 20 | 1002.1 |
| 20260504011525 | 75 | 360 | 7.0 | 10.4 | 0.00 | 0.00 | 0.00 | 18 | 1002.2 |
| 20260504010028 | 75 | 360 | 5.2 | 7.8 | 0.00 | 0.00 | 0.00 | 19 | 1002.4 |
| 20260504004537 | 77 | 360 | 2.6 | 11.3 | 0.00 | 0.00 | 0.00 | 17 | 1002.5 |
| 20260504003020 | 78 | 360 | 4.3 | 10.4 | 0.00 | 0.00 | 0.00 | 17 | 1002.6 |
| 20260504001520 | 78 | 360 | 6.1 | 9.6 | 0.00 | 0.00 | 0.00 | 18 | 1002.8 |
| 20260504000018 | 78 | 360 | 4.3 | 7.8 | 0.00 | 0.00 | 0.00 | 17 | 1002.9 |
| 20260503234516 | 77 | 360 | 8.7 | 15.6 | 0.00 | 0.00 | 0.00 | 17 | 1003.2 |
| 20260503233016 | 79 | 360 | 7.8 | 13.0 | 0.00 | 0.00 | 0.00 | 16 | 1003.2 |
| 20260503231514 | 79 | 360 | 6.1 | 13.9 | 0.00 | 0.00 | 0.00 | 16 | 1003.3 |
| 20260503230013 | 79 | 360 | 7.0 | 13.9 | 0.00 | 0.00 | 0.00 | 17 | 1003.5 |
| 20260503224511 | 78 | 360 | 5.2 | 13.9 | 0.00 | 0.00 | 0.00 | 17 | 1003.5 |
| 20260503223011 | 79 | 360 | 8.7 | 15.6 | 0.00 | 0.00 | 0.00 | 18 | 1003.7 |
| 20260503221507 | 79 | 360 | 7.8 | 13.0 | 0.00 | 0.00 | 0.00 | 18 | 1004.0 |
| 20260503220006 | 77 | 360 | 7.0 | 17.4 | 0.00 | 0.00 | 0.00 | 18 | 1004.2 |
| 20260503214503 | 79 | 263 | 6.1 | 12.2 | 0.00 | 0.00 | 0.00 | 17 | 1004.4 |
| 20260503213006 | 78 | 360 | 8.7 | 13.9 | 0.00 | 0.00 | 0.00 | 18 | 1004.6 |
| 20260503211606 | 77 | 360 | 7.8 | 14.8 | 0.00 | 0.00 | 0.00 | 20 | 1004.9 |
| 20260503210059 | 77 | 360 | 6.1 | 15.6 | 0.00 | 0.00 | 0.00 | 19 | 1005.3 |
| 20260503204657 | 79 | 360 | 7.8 | 13.9 | 0.00 | 0.00 | 0.00 | 20 | 1005.5 |
| 20260503203053 | 77 | 360 | 5.2 | 13.0 | 0.00 | 0.00 | 0.00 | 23 | 1005.7 |
| 20260503201552 | 78 | 360 | 7.8 | 13.0 | 0.00 | 0.00 | 0.00 | 22 | 1005.8 |
| 20260503200049 | 77 | 360 | 7.8 | 15.6 | 0.00 | 0.00 | 0.00 | 23 | 1006.1 |
| 20260503194550 | 77 | 360 | 6.1 | 14.8 | 0.00 | 0.00 | 0.00 | 23 | 1006.4 |
| 20260503193051 | 76 | 360 | 5.2 | 13.9 | 0.00 | 0.00 | 0.00 | 24 | 1006.6 |
| 20260503191541 | 75 | 360 | 6.1 | 15.6 | 0.00 | 0.00 | 0.00 | 26 | 1007.1 |
| 20260503190044 | 74 | 360 | 4.3 | 12.2 | 0.00 | 0.00 | 0.00 | 25 | 1007.3 |
| 20260503184542 | 74 | 360 | 9.6 | 17.4 | 0.00 | 0.00 | 0.00 | 26 | 1007.5 |
| 20260503183033 | 74 | 360 | 5.2 | 11.3 | 0.00 | 0.00 | 0.00 | 25 | 1007.8 |
| 20260503181533 | 73 | 360 | 5.2 | 11.3 | 0.00 | 0.00 | 0.00 | 26 | 1007.9 |
| 20260503180027 | 72 | 269 | 5.2 | 11.3 | 0.00 | 0.00 | 0.00 | 27 | 1008.3 |
| 20260503174528 | 72 | 360 | 7.8 | 13.9 | 0.00 | 0.00 | 0.00 | 28 | 1008.4 |
| 20260503173024 | 72 | 360 | 7.8 | 13.0 | 0.00 | 0.00 | 0.00 | 26 | 1008.5 |
| 20260503171521 | 72 | 265 | 6.1 | 11.3 | 0.00 | 0.00 | 0.00 | 28 | 1008.5 |